Location: Lecco
(45.8566°N, 9.3977°E)
Time: 07:57:09
(UTC+02:00)

Courier 1B Rocket - Pass Details

Date: 28 August 2019
Orbit: 920 x 1202 km, 28.2° (Epoch: 18 September)

Event Time Altitude Azimuth Distance (km) Brightness Sun altitude
Rises 05:52:15 0° 247° (WSW) 3,897 - -8.3°
Exits shadow 05:55:19 - 233° (SW) 3,158 7.0 -7.8°
Reaches altitude 10° 05:56:10 10° 227° (SW) 2,993 7.0 -7.7°
Maximum altitude 06:00:23 16° 192° (SSW) 2,607 6.9 -7.0°
Drops below altitude 10° 06:04:43 10° 157° (SSE) 3,084 7.7 -6.3°
Sets 06:08:52 0° 138° (SE) 4,074 8.6 -5.6°
